SV1JCZ-13 Weather Reports


time (UTC)temp
C
wind
direction
speed
KPH
gust
KPH
rain 1hr
cm
rain 24hr
cm
rain mn
cm
humidity
%
barometer
mb
20260507155720 23 351 0.0 0.0 0.00 0.00 0.00 49
20260507155120 23 351 0.0 0.0 0.00 0.00 0.00 47
20260507154921 23 351 0.0 0.0 0.00 0.00 0.00 46
20260507154520 23 351 0.0 0.0 0.00 0.00 0.00 46
20260507153920 23 351 0.0 0.0 0.00 0.00 0.00 47
20260507153320 23 351 0.0 0.0 0.00 0.00 0.00 49
20260507152921 23 351 0.0 0.0 0.00 0.00 0.00 49
20260507152720 23 351 0.0 0.0 0.00 0.00 0.00 49
20260507152120 23 351 0.0 0.0 0.00 0.00 0.00 49
20260507151520 23 351 0.0 0.0 0.00 0.00 0.00 50
20260507150920 22 351 0.0 0.0 0.00 0.00 0.00 52
20260507150320 22 351 0.0 8.0 0.00 0.00 0.00 55
20260507145720 21 322 0.0 0.0 0.00 0.00 0.00 55
20260507145120 21 322 0.0 3.2 0.00 0.00 0.00 55
20260507144520 21 322 0.0 0.0 0.00 0.00 0.00 55
20260507143920 21 322 0.0 6.4 0.00 0.00 0.00 54
20260507143320 21 293 0.0 0.0 0.00 0.00 0.00 54
20260507142720 21 293 0.0 0.0 0.00 0.00 0.00 53
20260507142120 21 293 0.0 0.0 0.00 0.00 0.00 52
20260507141520 22 293 0.0 8.0 0.00 0.00 0.00 51
20260507140920 22 306 0.0 6.4 0.00 0.00 0.00 50
20260507140320 22 307 0.0 0.0 0.00 0.00 0.00 49
20260507135720 22 288 4.8 8.0 0.00 0.00 0.00 49
20260507135120 22 348 0.0 8.0 0.00 0.00 0.00 48
20260507134922 22 11 0.0 0.0 0.00 0.00 0.00 49
20260507134520 22 11 0.0 0.0 0.00 0.00 0.00 49
20260507133920 23 11 0.0 0.0 0.00 0.00 0.00 48
20260507133320 23 11 0.0 8.0 0.00 0.00 0.00 46
20260507132922 23 351 0.0 8.0 0.00 0.00 0.00 46
20260507132720 23 78 0.0 0.0 0.00 0.00 0.00 46
20260507132120 23 78 0.0 6.4 0.00 0.00 0.00 48
20260507131520 22 14 0.0 9.7 0.00 0.00 0.00 50
20260507130920 22 11 0.0 0.0 0.00 0.00 0.00 51
20260507130320 22 312 4.8 8.0 0.00 0.00 0.00 52
20260507125720 22 286 6.4 8.0 0.00 0.00 0.00 52
20260507125120 22 351 0.0 9.7 0.00 0.00 0.00 51
20260507124922 22 309 8.0 8.0 0.00 0.00 0.00 51
20260507124520 22 354 0.0 8.0 0.00 0.00 0.00 51
20260507123920 22 151 0.0 6.4 0.00 0.00 0.00 52
20260507123320 22 45 0.0 4.8 0.00 0.00 0.00 52
20260507122720 22 26 0.0 3.2 0.00 0.00 0.00 49
20260507122120 22 26 0.0 3.2 0.00 0.00 0.00 46
20260507121521 22 26 0.0 8.0 0.00 0.00 0.00 43
20260507120921 22 355 0.0 6.4 0.00 0.00 0.00 46
20260507120320 21 9 0.0 0.0 0.00 0.00 0.00 49
20260507115721 21 9 0.0 0.0 0.00 0.00 0.00 52
20260507115121 21 9 0.0 0.0 0.00 0.00 0.00 52
20260507114922 21 9 0.0 0.0 0.00 0.00 0.00 51
20260507114521 21 9 0.0 4.8 0.00 0.00 0.00 51
20260507113921 21 9 0.0 8.0 0.00 0.00 0.00 51
20260507113321 21 347 0.0 0.0 0.00 0.00 0.00 53
20260507112922 21 347 0.0 0.0 0.00 0.00 0.00 52
20260507112721 21 347 0.0 0.0 0.00 0.00 0.00 52
20260507112121 21 347 0.0 0.0 0.00 0.00 0.00 52
20260507111521 21 347 0.0 4.8 0.00 0.00 0.00 52
20260507110921 21 29 6.4 6.4 0.00 0.00 0.00 51
20260507110321 21 26 0.0 4.8 0.00 0.00 0.00 49
20260507105721 21 14 0.0 6.4 0.00 0.00 0.00 47
20260507105121 21 288 0.0 0.0 0.00 0.00 0.00 51
20260507104922 21 288 0.0 0.0 0.00 0.00 0.00 51
20260507104521 21 288 0.0 0.0 0.00 0.00 0.00 52
20260507103921 21 288 0.0 0.0 0.00 0.00 0.00 51
20260507103321 21 288 0.0 0.0 0.00 0.00 0.00 52
20260507102922 21 288 0.0 0.0 0.00 0.00 0.00 51
20260507102721 21 288 0.0 0.0 0.00 0.00 0.00 51
20260507102121 21 288 0.0 0.0 0.00 0.00 0.00 51
20260507101521 21 288 0.0 0.0 0.00 0.00 0.00 51
20260507100921 21 288 0.0 0.0 0.00 0.00 0.00 49
20260507100321 21 288 0.0 0.0 0.00 0.00 0.00 49
20260507095721 21 288 0.0 0.0 0.00 0.00 0.00 50
20260507095121 21 358 0.0 8.0 0.00 0.00 0.00 51
20260507094922 21 358 0.0 8.0 0.00 0.00 0.00 49
20260507094521 21 358 3.2 4.8 0.00 0.00 0.00 49
20260507093921 21 309 0.0 6.4 0.00 0.00 0.00 50
20260507093321 21 309 0.0 4.8 0.00 0.00 0.00 51
20260507092721 21 358 0.0 9.7 0.00 0.00 0.00 51
20260507092121 21 331 0.0 0.0 0.00 0.00 0.00 51
20260507091521 20 331 0.0 8.0 0.00 0.00 0.00 52
20260507090921 20 2 0.0 0.0 0.00 0.00 0.00 51
20260507090321 20 2 0.0 0.0 0.00 0.00 0.00 50
20260507085721 20 2 0.0 0.0 0.00 0.00 0.00 49
20260507085121 20 2 0.0 0.0 0.00 0.00 0.00 49
20260507084922 20 2 0.0 0.0 0.00 0.00 0.00 48
20260507084521 20 2 0.0 0.0 0.00 0.00 0.00 49
20260507083921 20 2 0.0 0.0 0.00 0.00 0.00 49
20260507083321 20 2 0.0 0.0 0.00 0.00 0.00 48
20260507082922 20 2 0.0 0.0 0.00 0.00 0.00 47
20260507082721 20 2 0.0 8.0 0.00 0.00 0.00 47
20260507082121 20 344 0.0 0.0 0.00 0.00 0.00 49
20260507081521 20 344 0.0 11.3 0.00 0.00 0.00 49
20260507080921 20 305 0.0 4.8 0.00 0.00 0.00 47
20260507080321 20 299 0.0 0.0 0.00 0.00 0.00 48
20260507075721 20 299 0.0 0.0 0.00 0.00 0.00 49
20260507075121 19 299 0.0 6.4 0.00 0.00 0.00 52
20260507074923 19 315 4.8 6.4 0.00 0.00 0.00 51
20260507074521 19 354 0.0 8.0 0.00 0.00 0.00 50
20260507073921 19 49 0.0 0.0 0.00 0.00 0.00 41
20260507073321 19 49 0.0 8.0 0.00 0.00 0.00 44
20260507072922 19 305 0.0 6.4 0.00 0.00 0.00 47
20260507072721 19 305 0.0 6.4 0.00 0.00 0.00 48
20260507072121 19 288 0.0 0.0 0.00 0.00 0.00 50
20260507071521 19 288 0.0 0.0 0.00 0.00 0.00 50
20260507070921 19 288 0.0 6.4 0.00 0.00 0.00 51
20260507070321 18 267 6.4 8.0 0.00 0.00 0.00 48
20260507065721 18 139 0.0 1.6 0.00 0.00 0.00 44
20260507065121 17 163 0.0 0.0 0.00 0.00 0.00 49
20260507064922 17 163 0.0 0.0 0.00 0.00 0.00 54
20260507064521 17 163 0.0 0.0 0.00 0.00 0.00 52
20260507063921 17 163 0.0 0.0 0.00 0.00 0.00 53
20260507063321 17 163 0.0 0.0 0.00 0.00 0.00 53
20260507062922 17 163 0.0 0.0 0.00 0.00 0.00 51
20260507062721 17 163 0.0 0.0 0.00 0.00 0.00 50
20260507062121 17 163 0.0 0.0 0.00 0.00 0.00 51
20260507061521 17 163 0.0 0.0 0.00 0.00 0.00 50
20260507060921 17 163 0.0 0.0 0.00 0.00 0.00 51
20260507060321 17 163 0.0 0.0 0.00 0.00 0.00 54
20260507055721 17 163 0.0 0.0 0.00 0.00 0.00 51
20260507055121 17 163 0.0 0.0 0.00 0.00 0.00 48
20260507054922 17 163 0.0 0.0 0.00 0.00 0.00 48
20260507054521 17 163 0.0 0.0 0.00 0.00 0.00 50
20260507053921 16 163 0.0 0.0 0.00 0.00 0.00 53
20260507053321 16 163 0.0 1.6 0.00 0.00 0.00 56
20260507052922 16 163 0.0 0.0 0.00 0.00 0.00 60
20260507052721 16 163 0.0 0.0 0.00 0.00 0.00 60
20260507052121 15 163 0.0 0.0 0.00 0.00 0.00 60
20260507051521 15 163 0.0 0.0 0.00 0.00 0.00 60
20260507050921 15 163 0.0 0.0 0.00 0.00 0.00 60
20260507050321 15 163 0.0 0.0 0.00 0.00 0.00 59
20260507045721 15 163 0.0 0.0 0.00 0.00 0.00 58
20260507045121 14 163 0.0 0.0 0.00 0.00 0.00 59
20260507044922 14 163 0.0 0.0 0.00 0.00 0.00 58
20260507044521 14 163 0.0 0.0 0.00 0.00 0.00 58
20260507043921 14 163 0.0 0.0 0.00 0.00 0.00 58
20260507043321 14 163 0.0 0.0 0.00 0.00 0.00 57
20260507042721 13 163 0.0 0.0 0.00 0.00 0.00 57
20260507042121 13 163 0.0 0.0 0.00 0.00 0.00 56
20260507041521 13 163 0.0 0.0 0.00 0.00 0.00 56
20260507040921 13 163 0.0 0.0 0.00 0.00 0.00 56
20260507040321 13 163 0.0 0.0 0.00 0.00 0.00 55
20260507035721 13 163 0.0 0.0 0.00 0.00 0.00 55
20260507035121 13 163 0.0 0.0 0.00 0.00 0.00 55
20260507034922 13 163 0.0 0.0 0.00 0.00 0.00 55
20260507034521 13 163 0.0 0.0 0.00 0.00 0.00 55
20260507033921 13 163 0.0 0.0 0.00 0.00 0.00 55
20260507033322 13 163 0.0 0.0 0.00 0.00 0.00 54
20260507032722 13 163 0.0 0.0 0.00 0.00 0.00 55
20260507032122 13 163 0.0 0.0 0.00 0.00 0.00 55
20260507031522 13 163 0.0 0.0 0.00 0.00 0.00 56
20260507030922 13 163 0.0 0.0 0.00 0.00 0.00 55
20260507030322 13 163 0.0 0.0 0.00 0.00 0.00 55
20260507025722 13 163 0.0 0.0 0.00 0.00 0.00 54
20260507025122 14 163 0.0 0.0 0.00 0.00 0.00 54
20260507024923 14 163 0.0 0.0 0.00 0.00 0.00 54
20260507024522 14 163 0.0 0.0 0.00 0.00 0.00 53
20260507023922 14 163 0.0 0.0 0.00 0.00 0.00 52
20260507023322 14 163 0.0 0.0 0.00 0.00 0.00 51
20260507022923 14 163 0.0 0.0 0.00 0.00 0.00 52
20260507022722 14 163 0.0 0.0 0.00 0.00 0.00 52
20260507022122 14 163 0.0 8.0 0.00 0.00 0.00 53
20260507021522 14 115 0.0 0.0 0.00 0.00 0.00 53
20260507020922 14 115 0.0 4.8 0.00 0.00 0.00 53
20260507020322 15 70 0.0 0.0 0.00 0.00 0.00 53
20260507015722 14 70 0.0 0.0 0.00 0.00 0.00 52
20260507015122 14 70 0.0 11.3 0.00 0.00 0.00 50
20260507014923 14 70 0.0 11.3 0.00 0.00 0.00 50
20260507014522 14 125 0.0 4.8 0.00 0.00 0.00 52
20260507013922 14 120 0.0 0.0 0.00 0.00 0.00 55
20260507013322 14 120 0.0 0.0 0.00 0.00 0.00 56
20260507012923 14 120 0.0 0.0 0.00 0.00 0.00 56
20260507012722 14 120 0.0 0.0 0.00 0.00 0.00 56
20260507012122 14 120 0.0 0.0 0.00 0.00 0.00 56
20260507011522 14 120 0.0 0.0 0.00 0.00 0.00 56
20260507010922 14 120 0.0 0.0 0.00 0.00 0.00 55
20260507010322 14 120 0.0 0.0 0.00 0.00 0.00 55
20260507005722 14 120 0.0 4.8 0.00 0.00 0.00 55
20260507005122 14 111 0.0 0.0 0.00 0.00 0.00 57
20260507004923 14 111 0.0 0.0 0.00 0.00 0.00 57
20260507004522 14 111 0.0 0.0 0.00 0.00 0.00 56
20260507003922 15 111 0.0 0.0 0.00 0.00 0.00 57
20260507003322 15 111 0.0 0.0 0.00 0.00 0.00 56
20260507002722 15 111 0.0 6.4 0.00 0.00 0.00 55
20260507002122 15 120 0.0 0.0 0.00 0.00 0.00 55
20260507001522 15 120 0.0 8.0 0.00 0.00 0.00 55
20260507000922 15 102 0.0 0.0 0.00 0.00 0.00 55
20260507000322 15 102 0.0 0.0 0.00 0.00 0.00 53
20260506235722 15 102 0.0 0.0 0.00 0.00 0.00 53
20260506235122 15 102 0.0 0.0 0.00 0.00 0.00 53
20260506234923 15 102 0.0 0.0 0.00 0.00 0.00 53
20260506234522 15 102 0.0 0.0 0.00 0.00 0.00 53
20260506233922 16 102 0.0 0.0 0.00 0.00 0.00 52
20260506233322 16 102 0.0 0.0 0.00 0.00 0.00 51
20260506232923 16 102 0.0 4.8 0.00 0.00 0.00 50
20260506232722 16 102 0.0 4.8 0.00 0.00 0.00 50
20260506232122 16 102 6.4 8.0 0.00 0.00 0.00 50
20260506231522 16 137 0.0 6.4 0.00 0.00 0.00 50
20260506230922 15 136 0.0 0.0 0.00 0.00 0.00 50
20260506230322 15 136 3.2 8.0 0.00 0.00 0.00 53
20260506225722 15 161 0.0 6.4 0.00 0.00 0.00 54
20260506225122 15 293 0.0 0.0 0.00 0.00 0.00 54
20260506224923 15 293 0.0 0.0 0.00 0.00 0.00 56
20260506224522 15 293 0.0 0.0 0.00 0.00 0.00 56
20260506223922 15 293 0.0 0.0 0.00 0.00 0.00 56
20260506223322 15 293 0.0 0.0 0.00 0.00 0.00 55
20260506222923 15 293 0.0 0.0 0.00 0.00 0.00 55
20260506222722 15 293 0.0 0.0 0.00 0.00 0.00 55
20260506222122 16 293 0.0 0.0 0.00 0.00 0.00 54
20260506221522 16 293 0.0 0.0 0.00 0.00 0.00 53
20260506220922 16 293 0.0 0.0 0.00 0.00 0.00 53
20260506220322 16 293 0.0 0.0 0.00 0.00 0.00 52
20260506215722 16 293 0.0 0.0 0.00 0.00 0.00 50
20260506215122 16 293 0.0 0.0 0.00 0.00 0.00 50
20260506214923 16 293 0.0 0.0 0.00 0.00 0.00 49
20260506214522 16 293 0.0 0.0 0.00 0.00 0.00 49
20260506213922 16 293 0.0 0.0 0.00 0.00 0.00 53
20260506213322 16 293 0.0 0.0 0.00 0.00 0.00 53
20260506212722 16 293 0.0 0.0 0.00 0.00 0.00 53
20260506212122 16 293 0.0 0.0 0.00 0.00 0.00 52
20260506211522 16 293 0.0 0.0 0.00 0.00 0.00 52
20260506210922 16 293 0.0 0.0 0.00 0.00 0.00 51
20260506210322 16 293 0.0 0.0 0.00 0.00 0.00 51
20260506205722 16 293 0.0 0.0 0.00 0.00 0.00 51
20260506205122 16 293 0.0 0.0 0.00 0.00 0.00 50
20260506204923 16 293 0.0 0.0 0.00 0.00 0.00 50
20260506204522 16 293 0.0 0.0 0.00 0.00 0.00 50
20260506203922 16 293 0.0 0.0 0.00 0.00 0.00 50
20260506203322 16 293 0.0 0.0 0.00 0.00 0.00 49
20260506202923 16 293 0.0 0.0 0.00 0.00 0.00 50
20260506202722 17 293 0.0 0.0 0.00 0.00 0.00 49
20260506202122 17 293 0.0 0.0 0.00 0.00 0.00 49
20260506201522 17 293 0.0 0.0 0.00 0.00 0.00 48
20260506200922 17 293 0.0 8.0 0.00 0.00 0.00 48
20260506200322 17 57 0.0 0.0 0.00 0.00 0.00 45
20260506195722 17 57 0.0 6.4 0.00 0.00 0.00 50
20260506195122 17 70 0.0 0.0 0.00 0.00 0.00 50
20260506194923 17 70 0.0 0.0 0.00 0.00 0.00 50
20260506194522 17 70 0.0 0.0 0.00 0.00 0.00 50
20260506193922 17 70 0.0 0.0 0.00 0.00 0.00 49
20260506193322 17 70 0.0 0.0 0.00 0.00 0.00 49
20260506192923 18 70 0.0 0.0 0.00 0.00 0.00 49
20260506192722 18 70 0.0 0.0 0.00 0.00 0.00 48
20260506192122 18 70 0.0 0.0 0.00 0.00 0.00 47
20260506191522 18 70 0.0 0.0 0.00 0.00 0.00 46
20260506190922 18 70 0.0 4.8 0.00 0.00 0.00 45
20260506190322 18 168 0.0 6.4 0.00 0.00 0.00 44
20260506185722 18 77 0.0 0.0 0.00 0.00 0.00 44
20260506185122 18 77 0.0 0.0 0.00 0.00 0.00 43
20260506184522 18 77 0.0 8.0 0.00 0.00 0.00 44
20260506183922 18 140 0.0 6.4 0.00 0.00 0.00 43
20260506183322 18 42 0.0 8.0 0.00 0.00 0.00 42
20260506182722 19 92 0.0 8.0 0.00 0.00 0.00 41
20260506182122 19 126 0.0 6.4 0.00 0.00 0.00 41
20260506181522 19 133 0.0 0.0 0.00 0.00 0.00 42
20260506180922 19 133 0.0 4.8 0.00 0.00 0.00 42
20260506180322 19 88 0.0 6.4 0.00 0.00 0.00 40
20260506175722 20 97 0.0 9.7 0.00 0.00 0.00 40
20260506175122 20 49 0.0 9.7 0.00 0.00 0.00 40
20260506174923 20 49 4.8 9.7 0.00 0.00 0.00 39
20260506174522 20 175 0.0 8.0 0.00 0.00 0.00 39
20260506173922 20 102 0.0 6.4 0.00 0.00 0.00 40
20260506173322 20 132 0.0 0.0 0.00 0.00 0.00 41
20260506172722 20 132 0.0 14.5 0.00 0.00 0.00 39
20260506172123 21 130 0.0 4.8 0.00 0.00 0.00 38
20260506171522 21 147 0.0 6.4 0.00 0.00 0.00 38
20260506170922 21 115 0.0 0.0 0.00 0.00 0.00 40
20260506170322 21 115 0.0 0.0 0.00 0.00 0.00 36
20260506165722 21 115 0.0 8.0 0.00 0.00 0.00 36
20260506165123 22 125 0.0 0.0 0.00 0.00 0.00 35
20260506164522 22 125 3.2 8.0 0.00 0.00 0.00 34
20260506163923 23 106 0.0 9.7 0.00 0.00 0.00 35
20260506163322 23 23 0.0 0.0 0.00 0.00 0.00 34
20260506162924 24 23 0.0 0.0 0.00 0.00 0.00 36
20260506162723 24 23 0.0 0.0 0.00 0.00 0.00 38
20260506162122 24 23 0.0 0.0 0.00 0.00 0.00 40
20260506161523 25 23 0.0 0.0 0.00 0.00 0.00 39
20260506160923 25 23 0.0 0.0 0.00 0.00 0.00 40
20260506160323 25 23 0.0 0.0 0.00 0.00 0.00 35